sat.trackr.live / text

‹ back to catalog

YAOGAN-19

NORAD 39410 · 2013-065A

PAYLOAD ACTIVE UNKNOWN

§ Identity

Operator
Country
PRC
Launch date
2013-11-20
Launch site
TAISC
Launch vehicle
Mass (kg)
RCS (m²)
3.16

External: N2YO · Heavens-Above · Gunter

§ Orbital elements

Epoch: 2026-05-25T04:43:44.051232Z

Period
109.46 min
Inclination
100.1107°
Eccentricity
0.0009806
Mean motion
13.15583440 rev/d
Perigee alt
1,194.2 km
Apogee alt
1,209.1 km
Semi-major
7,579.8 km
B*
5.2338e-4
RAAN
122.6239°
Arg perigee
137.0165°
Mean anomaly
223.1716°
Rev number
60,062

§ Raw data

YAOGAN-191 39410U 13065A   26145.19703763  .00000155  00000+0  52338-3 0  99902 39410 100.1107 122.6239 0009806 137.0165 223.1716 13.15583440600620

JSON: /api/v1/satellites/39410 · /tle

For live sub-satellite position, see the globe view (requires WebGL).

§ Visibility from observer

Set your observer location to see the next 7 days of passes ≥ 10°. The values pass through the URL so the page stays shareable.

No JS? Fill the form by hand. The geolocation button needs JavaScript.